Location: Stoney Hill
(41.1359°N, 81.6679°W)
Time: 03:55:01
(UTC+00:00)

Daily predictions for brighter satellites

Satellite Brightness Start Highest point End
(mag) Time Altitude Azimuth Time Altitude Azimuth Time Altitude Azimuth
BREEZE-M DEB (TANK) 2.2 01:01:57 10° WSW 01:04:11 56° NNW 01:07:28 10° NE
BREEZE-M DEB (TANK) 2.7 01:00:19 10° WNW 01:07:34 62° NNE 01:10:27 10° ESE
COSMOS 2406 3.8 01:04:06 10° SSE 01:09:15 35° ESE 01:14:24 10° NE
BREEZE-M DEB (TANK) 3.7 01:01:55 10° WNW 01:11:01 49° SW 01:14:05 10° SSE
SL-08 RB Rocket 3.8 01:08:13 10° SSE 01:12:49 89° WSW 01:17:29 10° NNW
Gbstr 26 Del rocket 3.8 01:15:42 10° WNW 01:19:12 35° SW 01:22:37 10° SSE
Meteor 2-6 Rocket 4.5 01:18:57 10° N 01:24:17 49° ENE 01:29:44 10° SSE
Cosmos 2218 Rocket 4.1 01:18:14 10° S 01:24:25 85° W 01:30:36 10° N
Cosmos 2228 Rocket 3.2 01:22:23 10° N 01:26:44 54° E 01:31:02 10° SSE
Cosmos 2082 Rocket 3.5 01:23:07 10° SE 01:27:02 19° E 01:30:56 10° NE
Cosmos 1782 2.8 01:23:13 10° N 01:27:15 88° E 01:31:16 10° S
Cosmos 1515 Rocket 4.0 01:28:52 10° NNW 01:33:17 64° W 01:37:41 10° S
Cosmos 1900 4.3 01:29:02 10° SSW 01:33:56 86° ESE 01:38:58 10° NNE
SL-4 R/B 2.4 01:33:46 10° SSW 01:37:32 37° SE 01:41:03 10° ENE
Resurs 01 Rocket 2.0 01:34:15 13° SE 01:37:57 45° ENE 01:42:10 10° N
IRIDIUM 106 4.4 01:36:19 10° SSE 01:41:25 60° E 01:46:33 10° N
MONITOR-E 4.5 01:41:41 10° S 01:43:59 45° W 01:46:18 10° NNW
Meteor 1-10 Rocket 4.3 01:40:19 10° N 01:45:57 63° ENE 01:51:07 13° SSE
Meteor 1-27 Rocket 4.4 01:40:31 10° N 01:46:03 39° ENE 01:50:03 18° SE
Lacrosse 5 4.4 01:46:36 10° NNW 01:49:12 14° N 01:51:48 10° NE
CZ-2C R/B 3.2 01:44:22 10° N 01:49:26 59° WNW 01:54:32 10° SSW
Spot 2 Rocket 4.4 01:49:15 18° ESE 01:52:12 33° ENE 01:56:44 10° N
Ariane Rocket 4.5 01:49:37 10° SSW 01:54:15 36° W 01:58:53 10° NNW
USA 267 3.4 01:49:10 10° NE 01:55:43 82° NW 02:02:16 10° SW
Cosmos 1727 Rocket 4.2 01:50:46 10° N 01:57:08 78° W 02:03:27 10° S
CZ-2C R/B 3.9 01:52:32 10° N 01:57:10 75° WNW 02:01:40 10° SSW
Cosmos 1190 Rocket 4.4 01:52:23 10° S 01:57:18 42° ESE 02:02:17 10° NNE
Shenzhou-11 Module 1.9 01:55:30 10° WNW 01:57:50 52° N 01:58:37 32° ENE
Cosmos 1812 2.7 01:54:30 10° N 01:58:19 61° E 02:00:28 24° SSE
GP-B 4.2 01:56:17 10° NNE 02:00:03 27° E 02:01:15 24° ESE
Cosmos 407 Rocket 3.6 01:55:46 10° S 02:00:58 57° ESE 02:06:11 10° NNE
IGS 5A 4.2 02:00:02 25° ESE 02:01:41 34° ENE 02:05:26 10° N
Intercosmos 25 3.2 01:59:38 10° N 02:03:56 66° E 02:05:31 29° SSE
Cosmos 1980 Rocket 3.4 02:00:07 10° N 02:04:55 27° NE 02:07:40 19° E
Cosmos 389 Rocket 2.4 02:06:36 10° NNW 02:10:02 78° W 02:11:47 27° S
Cosmos 1441 Rocket 3.3 02:07:24 10° SSW 02:11:12 74° W 02:14:59 10° N
Cosmos 1934 Rocket 4.2 02:07:18 16° SSE 02:12:13 54° E 02:18:24 10° NNE
Terra 3.5 02:13:21 16° E 02:14:32 18° ENE 02:17:40 10° NNE
SPOT 1/Viking Rocket 4.1 02:12:53 27° ESE 02:15:14 44° ENE 02:20:10 10° N
ATLAS 5 CENTAUR R/B 2.5 02:10:14 10° NW 02:16:08 83° WSW 02:20:16 25° SSE
Sich 1 3.1 02:11:54 10° S 02:16:19 83° W 02:20:46 10° N
Cosmos 1833 Rocket 2.6 02:13:23 10° SSW 02:19:00 89° WNW 02:24:40 10° NNE
Cosmos 1697 Rocket 2.7 02:15:43 10° NNW 02:21:19 64° ENE 02:23:55 32° SE
Cosmos 1821 Rocket 4.1 02:18:02 10° SSW 02:24:07 74° W 02:30:20 10° N
SPOT 5 3.7 02:24:20 25° E 02:25:01 27° ENE 02:28:39 10° N
deb Kosmos-1763 4.4 02:26:03 44° E 02:26:03 44° E 02:29:12 10° NNE
Cosmos 1140 Rocket 3.4 02:23:33 10° SSW 02:28:47 79° ESE 02:34:03 10° NNE
USA 32 4.3 02:27:35 35° SE 02:29:17 48° E 02:34:19 10° NNE
USA 234 3.6 02:25:18 24° ESE 02:29:18 58° NE 02:35:42 10° NW
SL-8 R/B 3.6 02:24:50 10° WNW 02:29:41 79° SSW 02:31:18 42° SE
FALCON 9 DEB 3.0 02:28:34 10° SW 02:32:03 78° SE 02:32:58 46° ENE
CARTOSAT-1 4.2 02:31:46 35° E 02:32:23 37° ENE 02:36:23 10° N
Cosmos 1023 Rocket 4.4 02:28:21 10° SSW 02:33:38 89° ESE 02:38:57 10° NNE
Aureole 1 Rocket 4.2 02:28:47 15° S 02:34:14 67° ESE 02:42:07 10° NNE
Cosmos 1656 4.2 02:30:32 10° NNW 02:35:51 53° WSW 02:39:00 24° S
Cosmos 1666 Rocket 3.6 02:33:26 24° SSW 02:35:58 77° W 02:40:18 10° N
Cosmos 1867 3.5 02:31:42 10° SSW 02:37:01 61° ESE 02:42:24 10° NE
USA 238 DEB 3.7 02:36:17 12° S 02:42:16 52° ESE 02:48:50 10° NE
USA 238 3.7 02:36:50 14° S 02:42:22 52° ESE 02:48:56 10° NE
Cosmos 2360 4.2 02:39:41 10° NNW 02:45:27 77° ENE 02:47:21 44° SE
Cosmos 1535 Rocket 4.4 02:42:27 20° S 02:46:57 86° W 02:53:06 10° N
Cosmos 2123 Rocket 3.9 02:41:55 10° N 02:48:10 89° E 02:51:05 34° S
SAR-Lupe-2 4.3 02:47:29 10° NNE 02:50:05 42° NE 02:50:05 42° NE
Cosmos 676 Rocket 3.9 02:51:59 32° SSW 02:54:32 83° ESE 02:59:54 10° NNE
Cosmos 2242 Rocket 4.3 02:51:13 10° N 02:55:07 38° ENE 02:55:07 38° ENE
Cosmos 1605 Rocket 3.8 02:54:53 37° S 02:57:27 78° E 03:03:33 10° N
Okean 1 4.3 02:56:06 10° N 02:59:12 35° NE 02:59:12 35° NE
SL-16 R/B 3.6 02:58:04 10° N 03:02:38 24° NE 03:03:57 22° ENE
Landsat 7 4.4 03:01:15 36° SSW 03:02:48 51° W 03:07:27 10° NNW
SL-24 R/B - RUBIN 2 4.4 02:58:08 10° NW 03:04:47 82° WSW 03:06:30 51° SSE
Meteor 1-4 Rocket 3.4 03:03:14 10° NNW 03:06:19 44° W 03:06:19 44° W
Cosmos 2369 4.0 03:01:19 10° NNW 03:06:58 61° WSW 03:08:38 43° SSW
Cosmos 1437 Rocket 4.4 03:04:00 10° NNE 03:06:09 24° NE 03:06:09 24° NE
Cosmos 1633 Rocket 4.3 03:07:43 22° SW 03:10:00 39° WNW 03:14:11 10° N
Cosmos 2082 Rocket 2.7 03:04:57 10° SW 03:10:35 59° WNW 03:16:12 10° NNE
CENTAUR R/B 2.7 03:13:55 48° ESE 03:13:55 48° ESE 03:19:53 10° NE
Cosmos 192 4.1 03:08:55 10° NNW 03:13:51 83° ENE 03:14:06 79° ESE
Resurs 01 Rocket 4.1 03:11:55 10° SW 03:14:39 16° W 03:17:25 10° NW
Cosmos 2278 3.7 03:10:53 10° NNW 03:16:37 77° WSW 03:17:38 60° S
ERS-1 Rocket 2.9 03:16:08 63° SSW 03:16:51 75° WSW 03:21:53 10° NNW
SL-4 R/B 3.2 03:13:29 10° W 03:17:07 37° NNW 03:19:21 18° NNE
Cosmos 405 Rocket 3.8 03:23:06 40° N 03:23:06 40° N 03:25:36 10° N
Okean 1-7 3.9 03:19:49 10° N 03:23:05 41° NE 03:23:05 41° NE
Cosmos 1741 Rocket 4.4 03:25:03 48° ENE 03:25:03 48° ENE 03:29:16 10° NNE
Cosmos 468 Rocket 4.4 03:19:03 10° N 03:24:14 50° ENE 03:24:19 50° ENE
Cosmos 1818 4.5 03:20:08 10° NW 03:25:08 37° WSW 03:25:59 35° SW
Cosmos 2322 Rocket 3.4 03:20:46 10° N 03:25:42 29° NE 03:26:26 28° ENE
Genesis I 4.1 03:24:12 10° NNW 03:27:02 46° NNW 03:27:02 46° NNW
Cosmos 1459 Rocket 4.1 03:33:07 54° E 03:33:14 54° E 03:39:23 10° NNE
Lacrosse 5 3.3 03:29:11 10° NNW 03:33:40 30° NNE 03:34:47 27° NE
Cosmos 1153 Rocket 4.4 03:36:05 59° SSW 03:37:19 81° W 03:43:31 10° N
NOSS 3-2 (A) 3.6 03:33:15 18° SW 03:37:28 66° NW 03:43:51 10° NNE
Meteor 1-19 Rocket 4.0 03:33:00 10° N 03:38:26 90° ENE 03:38:31 87° SSE
Cosmos 2360 Rocket 3.8 03:35:59 10° N 03:40:17 22° NE 03:41:10 21° ENE
Meteor 1-14 Rocket 4.2 03:41:34 69° SW 03:42:16 81° W 03:48:13 10° N
NOSS 3-2 (C) 3.1 03:42:27 80° S 03:42:47 85° ESE 03:49:10 10° NE
ATLAS 5 CENTAUR R/B 3.9 03:40:08 10° N 03:43:03 26° NE 03:43:14 26° ENE
Cosmos 1802 Rocket 4.2 03:45:47 56° E 03:45:47 56° E 03:51:55 10° NNE
Cosmos 1980 Rocket 2.8 03:43:43 10° NW 03:49:06 46° WSW 03:49:26 45° WSW
Cosmos 921 Rocket 4.1 03:47:08 10° NNW 03:50:09 39° WNW 03:50:09 39° WNW
Terra 2.4 03:52:15 50° W 03:52:15 50° W 03:56:30 10° NNW
Meteor 1-5 Rocket 4.4 03:58:20 70° ENE 03:58:20 70° ENE 04:03:53 10° NNE
Geosat 4.4 03:58:54 56° NNE 03:58:54 56° NNE 04:03:19 10° NNW
Iridium 4 Rocket 4.2 04:04:15 41° N 04:04:15 41° N 04:07:05 10° N
SPOT 5 4.4 04:03:35 25° W 04:03:35 25° W 04:06:41 10° NW
Cosmos 1763 Rocket 3.9 04:06:29 10° NNW 04:11:00 60° NW 04:11:00 60° NW
USA 234 3.8 04:12:39 42° SW 04:12:39 42° SW 04:18:35 10° WNW
Meteor 2-4 Rocket 4.0 04:13:03 10° NNW 04:18:09 63° WNW 04:18:09 63° WNW
MOS 1-B Rocket 3.9 04:16:20 10° N 04:21:37 73° NNW 04:21:37 73° NNW
Tsikada Rocket 4.2 04:20:46 10° N 04:26:38 60° ENE 04:26:38 60° ENE
ATLAS 3B R/B 3.0 04:29:08 51° ENE 04:29:08 51° ENE 04:34:13 10° NE
Thor Agena Rocket 4.2 04:26:51 10° NNE 04:30:36 50° N 04:30:36 50° N
ALOS 2 4.3 04:36:22 29° NNE 04:36:22 29° NNE 04:38:45 10° N
BREEZE-M DEB (TANK) 4.4 04:35:06 10° W 04:46:59 58° N 04:47:58 50° NE
SL-16 R/B 3.0 04:41:32 10° NNW 04:45:47 44° WNW 04:45:47 44° WNW
Cosmos 2219 Rocket 3.5 04:54:48 10° N 04:59:47 32° NE 04:59:47 32° NE
Cosmos 1725 Rocket 4.4 05:00:37 57° WNW 05:00:37 57° WNW 05:06:35 10° N
Lacrosse 4 Rocket 4.0 05:06:14 17° NE 05:06:14 17° NE 05:07:13 10° NNE
CENTAUR R/B 3.9 05:01:01 21° W 05:04:22 35° NW 05:10:46 10° NNE
Cosmos 2322 Rocket 3.4 05:04:31 10° NW 05:08:14 34° WNW 05:08:14 34° WNW
Lacrosse 5 3.7 05:11:55 10° NW 05:13:56 24° WNW 05:13:56 24° WNW
COSMOS 2428 3.6 05:17:50 10° NNW 05:22:48 42° NE 05:22:48 42° NE
Cosmos 2360 Rocket 3.2 05:19:07 10° NNW 05:22:55 41° NW 05:22:55 41° NW
Cosmos 2297 Rocket 4.3 05:36:18 17° ENE 05:36:18 17° ENE 05:38:27 10° NE
Cosmos 2333 Rocket 2.8 05:37:09 10° NNW 05:41:37 54° N 05:41:37 54° N
Cosmos 1464 Rocket 4.2 05:48:38 67° NNE 05:48:38 67° NNE 05:53:58 10° N
Cosmos 2237 Rocket 3.7 05:44:05 10° N 05:48:55 28° NE 05:49:50 26° ENE
Nadezhda 4 Rocket 4.1 06:06:54 10° N 06:12:35 72° NNE 06:12:35 72° NNE
Cosmos 2034 Rocket 4.1 06:16:24 72° N 06:16:24 72° N 06:22:03 10° N
SL-16 R/B 3.8 06:15:16 30° E 06:17:00 35° ENE 06:22:35 10° N
Resurs 1-4 Rocket 3.6 06:13:55 10° NE 06:17:38 27° E 06:17:38 27° E
ATLAS 3B R/B 4.1 06:16:20 23° WNW 06:18:49 29° NW 06:24:32 10° NNE
Cosmos 2227 Rocket 3.2 06:24:31 39° ENE 06:24:31 39° ENE 06:28:46 10° NE
Cosmos 1092 Rocket 4.2 06:20:27 10° N 06:26:32 63° ENE 06:26:32 63° ENE
SJ 16-02 3.8 06:31:05 16° ENE 06:31:05 16° ENE 06:32:48 10° NE
USA 215 4.3 06:24:01 10° ENE 06:28:48 32° ESE 06:28:48 32° ESE
Lacrosse 4 Rocket 4.0 06:42:31 14° NW 06:42:31 14° NW 06:44:20 10° NNW
Cosmos 2219 Rocket 3.7 06:38:39 10° NW 06:41:28 26° WNW 06:41:28 26° WNW
Cosmos 1777 Rocket 4.5 06:53:21 57° NNW 06:53:21 57° NNW 06:57:43 10° NNE
IRAS Rocket 4.4 06:55:23 68° ENE 06:55:27 68° ENE 07:01:00 10° N
SL-19 R/B 4.4 06:50:25 10° N 06:55:59 71° NW 06:55:59 71° NW
SL-16 R/B 3.5 06:53:22 10° N 06:58:36 36° ENE 07:02:01 19° ESE
Timation 2 Rocket 4.3 06:59:03 50° WNW 06:59:12 50° WNW 07:05:06 10° NNE
Cosmos 1626 4.5 06:57:51 10° NNE 07:00:06 21° ENE 07:00:06 21° ENE
CZ-2D R/B 2.3 06:56:32 10° NNE 07:01:45 70° E 07:01:45 70° E
GEOS 3 Rocket 4.1 06:57:06 10° NNE 07:02:22 55° NW 07:02:23 55° NW
Meteor 2-13 Rocket 4.4 06:56:45 10° N 07:02:35 75° WNW 07:02:35 75° WNW
ADEOS II 3.4 06:59:05 10° NE 07:03:37 29° E 07:04:13 28° ESE
NPP 3.9 06:58:36 10° NNE 07:03:45 62° E 07:03:45 62° E
CZ-4B R/B 4.5 06:59:36 10° NNE 07:03:38 35° E 07:03:38 35° E
COSMOS 2428 4.5 07:02:35 10° NW 07:04:47 20° WNW 07:04:47 20° WNW
Meteor 2-5 Rocket 4.0 07:06:56 10° N 07:12:30 59° ENE 07:13:17 54° ESE
Cosmos 2263 Rocket 4.4 07:13:04 12° ESE 07:14:59 15° E 07:17:55 10° ENE
Cosmos 2297 Rocket 2.4 07:18:06 58° WNW 07:18:06 58° WNW 07:23:38 10° NNE
Cosmos 2219 3.7 07:20:21 47° WNW 07:20:22 47° WNW 07:25:48 10° NNE
Cosmos 1980 4.4 07:17:58 10° NW 07:21:57 40° WNW 07:21:57 40° WNW
Cosmos 2279 Rocket 3.8 07:22:52 73° S 07:23:33 89° E 07:29:47 10° N
Meteor 1-22 Rocket 4.2 07:26:25 63° ESE 07:26:45 65° E 07:32:00 10° NNE
Cosmos 2026 Rocket 4.0 07:22:07 10° NNW 07:28:00 57° W 07:28:00 57° W
USA 229 DEB 4.2 07:27:41 39° SE 07:28:59 44° ESE 07:35:19 10° NE
USA 229 4.2 07:27:47 39° SE 07:29:04 44° ESE 07:35:22 10° NE
Cosmos 1634 Rocket 4.3 07:30:05 50° W 07:30:23 50° WNW 07:36:27 10° N
Cosmos 2237 Rocket 3.0 07:27:47 10° NW 07:31:36 36° WNW 07:31:36 36° WNW
COBE Rocket 3.8 07:38:24 70° ESE 07:38:41 72° ENE 07:43:19 10° N
NOSS 3-1 (A) 4.2 07:39:16 31° SE 07:40:23 33° ESE 07:45:40 10° NE
SL-14 R/B 3.9 07:37:47 10° N 07:40:59 53° NNE 07:40:59 53° NNE
Cosmos 1733 4.4 07:47:26 36° NNW 07:47:26 36° NNW 07:49:57 10° N
Okean 1 Rocket 4.3 07:47:42 30° NW 07:47:42 30° NW 07:50:42 10° N
Okean 1-7 Rocket 4.1 07:43:00 10° N 07:47:21 55° E 07:48:09 47° ESE
Cosmos 1607 3.9 07:49:49 10° NNW 07:56:19 88° SW 08:02:47 10° SSE
Cosmos 1758 3.8 07:57:09 53° ESE 07:57:27 54° E 08:01:24 10° NNE
IRS-P3 4.2 07:52:41 10° NNE 07:58:02 70° ESE 07:59:36 46° S
Resurs 1-4 Rocket 2.9 07:53:32 10° N 07:58:18 35° WNW 07:58:42 35° WNW
SL-16 R/B 3.1 08:00:22 39° W 08:00:29 39° W 08:06:18 10° NNW
Cosmos 1726 3.7 07:59:55 26° ESE 08:00:44 29° E 08:03:57 10° NNE
AQUA 4.4 07:59:37 10° N 08:04:06 42° WNW 08:04:16 42° WNW
Cosmos 2227 Rocket 3.4 08:06:20 26° WNW 08:07:37 29° NW 08:12:30 10° N
SJ 16-02 2.1 08:08:04 39° WNW 08:08:04 39° WNW 08:12:11 10° N
Cosmos 2112 Rocket 3.8 08:03:08 10° NNW 08:08:23 83° WSW 08:10:29 37° SSE
Cosmos 1340 Rocket 2.6 08:10:57 79° SSE 08:11:10 86° E 08:15:09 10° N
Cosmos 1937 Rocket 3.5 08:10:15 48° SSW 08:11:46 85° ESE 08:17:07 10° NNE
USA 215 3.3 08:06:36 10° NE 08:13:06 70° NW 08:16:08 34° WSW
CBERS-1 4.2 08:09:42 10° N 08:14:42 55° WNW 08:15:44 46° WSW
SL-4 R/B 1.7 08:17:50 66° N 08:18:06 71° NE 08:21:30 10° ESE
Cosmos 1898 Rocket 3.6 08:16:55 47° WSW 08:18:09 61° WNW 08:23:20 10° NNE
Cosmos 2266 Rocket 3.9 08:12:06 10° N 08:18:27 74° W 08:21:46 29° S
Cosmos 1461 3.5 08:18:18 43° WNW 08:18:54 46° NW 08:23:17 10° NNE
Cosmos 1953 3.1 08:17:50 31° SSE 08:19:21 47° E 08:23:14 10° NNE
Cosmos 1455 Rocket 3.2 08:19:54 51° W 08:20:17 53° W 08:24:38 10° N
ATLAS CENTAUR R/B 4.0 08:19:08 10° SE 08:20:47 12° ESE 08:22:25 10° E
ARIANE 5 R/B 2.6 08:16:24 10° NNE 08:21:40 80° ESE 08:24:01 34° S
Cosmos 1626 Rocket 3.9 08:19:28 10° N 08:23:45 61° E 08:26:40 19° SSE
ATLAS 3B CENTAUR R/B 3.9 08:20:18 29° SW 08:24:21 36° SSW 08:30:31 10° SE
Cosmos 1655 Rocket 4.2 08:19:29 10° NNW 08:25:27 49° W 08:27:35 35° SW
Cosmos 1680 Rocket 3.7 08:20:40 10° NNW 08:25:41 49° WSW 08:26:46 42° SW
Cosmos 990 Rocket 4.4 08:24:28 39° WSW 08:25:46 48° WNW 08:30:47 10° N
SL-08 R/B 3.3 08:25:32 27° S 08:28:16 80° WSW 08:33:15 10° NNW
CZ-2D R/B 3.6 08:25:23 10° NNE 08:29:23 63° E 08:30:56 34° S
Cosmos 372 Rocket 4.4 08:27:50 25° S 08:30:43 58° ESE 08:35:52 10° NNE
Cosmos 1892 Rocket 4.3 08:27:31 10° NNW 08:31:30 35° W 08:31:30 35° W
IDEFIX/ARIANE 42P 2.8 08:27:45 10° NNE 08:32:56 66° E 08:36:21 22° S
Cosmos 1626 4.0 08:33:05 10° NW 08:34:37 18° WNW 08:34:37 18° WNW
NOSS 2-3 (E) 3.5 08:36:52 42° SW 08:38:16 85° NW 08:43:05 10° NE
ERS-1 4.4 08:33:35 10° N 08:38:32 70° WNW 08:40:44 33° SSW
IRS-1D 4.5 08:34:30 10° N 08:38:57 32° WNW 08:40:24 27° W
Meteor 1-28 Rocket 3.2 08:40:36 45° SSW 08:41:24 57° W 08:45:09 10° NNW
CZ-2D R/B 3.9 08:38:04 10° NNW 08:41:27 17° WNW 08:43:04 15° W
SL-16 R/B 2.9 08:37:36 10° NW 08:42:37 33° WSW 08:43:47 30° SW
ADEOS II 2.9 08:38:34 10° N 08:43:19 35° WNW 08:45:09 27° WSW
USA 267 3.7 08:37:18 10° ESE 08:43:46 66° NE 08:50:14 10° NW
Cosmos 1809 Rocket 4.4 08:39:28 10° NNW 08:45:33 72° W 08:51:18 12° S
NOSS 3-1 (C) 3.7 08:43:10 28° WSW 08:45:51 49° NW 08:51:57 10° NNE
Cosmos 724 4.4 08:41:15 10° NNW 08:47:19 82° ENE 08:53:26 10° SSE
Meteor 2-10 4.1 08:48:03 25° SSW 08:51:16 69° W 08:56:53 10° N
Cosmos 1470 4.1 08:53:32 24° W 08:53:58 24° WNW 08:57:15 10° NNW
H-2A R/B 2.2 08:52:39 10° SSE 08:56:45 69° ENE 09:00:50 10° N
Atlas Centaur 2 4.4 08:53:57 14° S 08:58:03 21° SSE 09:03:48 10° ESE
Cosmos 2263 Rocket 2.1 08:54:47 24° SSW 08:58:11 73° WNW 09:03:46 10° NNE
NOSS 2-3 (D) 3.9 09:00:01 27° WSW 09:02:09 56° NW 09:06:57 10° NNE
FALCON 9 DEB 3.1 08:59:37 10° NW 09:03:07 86° NE 09:06:34 10° SE
Cosmos 2298 Rocket 4.0 09:06:51 16° SSW 09:11:08 85° WNW 09:16:30 10° NNE
SeaSat 1 2.5 09:14:13 10° NNE 09:19:12 87° ESE 09:23:49 12° SSW
USA 229 DEB 4.4 09:15:07 16° WSW 09:19:57 39° NW 09:26:22 10° NNE
USA 229 4.4 09:15:13 16° WSW 09:20:02 40° NW 09:26:26 10° NNE
Cosmos 1603 3.7 09:16:54 10° NNW 09:22:33 59° WSW 09:28:07 10° S
PAYLOAD A 4.3 09:18:57 10° NNE 09:24:20 76° ESE 09:29:30 10° S
Cosmos 1844 Rocket 4.0 09:19:18 10° S 09:24:24 38° ESE 09:29:30 10° NE
H-2A R/B (2) 3.2 09:27:02 10° SSW 09:27:33 10° S 09:28:05 10° S
Cosmos 2285 Rocket 4.0 09:21:47 11° SSW 09:27:53 72° WNW 09:34:12 10° NNE
Cosmos 1602 Rocket 4.3 09:25:09 10° NNW 09:29:02 32° W 09:32:51 10° SSW
Cosmos 1606 Rocket 3.6 09:25:01 10° S 09:29:28 86° W 09:33:58 10° N
NOSS 3-1 (A) 4.1 09:26:42 14° WSW 09:31:04 40° NW 09:37:01 10° NNE
ERS-2 2.2 09:27:56 10° S 09:31:30 54° W 09:35:05 10° NNW
CZ-4B R/B 2.7 09:28:49 10° SE 09:31:57 42° ENE 09:35:02 10° N
Cosmos 1726 3.9 09:34:26 13° W 09:35:59 16° WNW 09:38:18 10° NNW
Cosmos 1048 Rocket 3.9 09:31:15 10° NNW 09:36:25 86° WSW 09:41:36 10° SSE
Cosmos 2084 3.6 09:33:07 11° SSW 09:37:20 81° SE 09:41:47 10° NE
CZ-4C R/B 3.6 09:34:47 10° SSW 09:37:39 30° W 09:40:35 10° NNW
Cosmos 482 Debris 4.2 09:33:26 10° NW 09:38:53 79° SW 09:42:05 10° SE
CZ-2C R/B 3.8 09:36:11 10° N 09:39:33 29° WNW 09:42:36 11° SW
OAO 3 Rocket 3.9 09:35:51 13° WSW 09:39:53 40° S 09:44:29 10° ESE
DEBRIS 2.2 09:41:38 12° WSW 09:43:44 45° NNW 09:45:47 10° NE
Cosmos 1726 Rocket 3.6 09:42:31 10° SSW 09:46:57 70° W 09:51:25 10° N
SL-08 ROCKET BODY 4.4 09:41:47 10° NNW 09:47:49 70° W 09:53:43 10° S
Cosmos 1943 3.5 09:43:02 10° NW 09:48:18 42° WSW 09:53:32 10° S
Cosmos 1908 4.3 09:46:41 10° SW 09:50:05 28° WNW 09:53:31 10° NNW
Cosmos 1386 Rocket 4.4 09:44:46 10° N 09:50:47 75° W 09:56:46 10° S
Cosmos 1553 Rocket 4.3 09:46:08 10° SSW 09:51:55 45° WNW 09:57:45 10° N
NOSS 8 (H) 4.5 09:50:35 10° SSW 09:53:57 68° ESE 09:56:57 10° NE
Cosmos 1953 4.4 09:54:15 10° W 09:56:02 13° WNW 09:57:50 10° NW
SL-4 R/B 3.4 09:55:34 10° W 09:57:13 13° SW 09:58:54 10° SSW
Landsat 5 4.5 09:54:14 10° SSW 09:57:25 24° W 10:00:41 10° NW
PSLV R/B 4.0 09:53:39 10° N 09:57:50 45° WNW 10:01:59 10° SW
Cosmos 1356 Rocket 3.5 09:54:14 10° SSW 09:58:24 59° WNW 10:02:31 10° N
ATLAS CENTAUR R/B 1.5 09:55:04 10° SW 09:59:15 63° NW 10:03:12 10° NNE
ARIANE 5 R/B 4.5 09:57:26 10° NNW 10:00:04 14° WNW 10:02:41 10° W
